Temperature
-3 -2 -2 -2 -2 -2 -2 -1 -1 -1 -1 -1 -1 -1 -1 -0 -0 -0 -0 0 0 0 0 0 1 0 0 0 0 0 0 0 -0 1 1 1 1 1 1 1 1 1 1
-3 -3 -3 -3 -3 -2 -2 -2 -2 -2 -2 -2 -2 -2 -2 -1 -1 -1 -1 -1 -1 -0 -0 -0 -0 -0 -0 -0 -0 -0 -0 -0 -1 -0 0 0 0 0 0 -0 -0 -0 -0
-4 -4 -4 -3 -3 -3 -3 -3 -3 -3 -3 -2 -2 -2 -2 -2 -2 -2 -2 -1 -1 -1 -1 -1 -1 -1 -1 -1 -1 -1 -1 -1 -1 -1 -1 -1 -1 -1 -1 -1 -1 -1 -1
-5 -5 -5 -4 -4 -4 -4 -4 -4 -4 -3 -3 -3 -3 -3 -3 -3 -3 -2 -2 -2 -2 -2 -2 -2 -2 -2 -2 -2 -2 -2 -2 -2 -2 -2 -2 -2 -2 -2 -2 -1 -1 -1
-6 -6 -6 -5 -5 -5 -5 -5 -4 -4 -4 -4 -4 -4 -4 -4 -3 -3 -3 -3 -3 -3 -2 -2 -2 -2 -2 -2 -3 -2 -3 -3 -3 -3 -3 -3 -3 -2 -2 -2 -2 -2 -2
-7 -7 -6 -6 -6 -6 -6 -5 -5 -5 -5 -5 -5 -5 -4 -4 -4 -4 -4 -4 -4 -4 -3 -3 -3 -3 -3 -3 -3 -3 -3 -3 -3 -3 -3 -3 -3 -3 -3 -3 -3 -3 -3
-7 -7 -7 -7 -7 -7 -7 -6 -6 -6 -6 -6 -5 -5 -5 -5 -5 -5 -5 -5 -5 -5 -4 -4 -4 -4 -4 -4 -4 -4 -4 -4 -4 -4 -4 -4 -4 -4 -4 -4 -4 -4 -3
-8 -8 -8 -8 -8 -7 -7 -7 -7 -7 -7 -6 -6 -6 -6 -6 -6 -6 -6 -6 -6 -5 -5 -5 -5 -4 -4 -4 -4 -4 -4 -4 -4 -4 -4 -4 -4 -4 -4 -4 -4 -4 -4
-8 -8 -8 -8 -8 -8 -8 -8 -8 -8 -7 -7 -7 -7 -7 -7 -7 -7 -6 -6 -6 -6 -6 -5 -5 -5 -5 -5 -5 -5 -5 -5 -5 -5 -5 -5 -5 -5 -5 -5 -5 -5 -5
-9 -9 -9 -9 -9 -9 -9 -9 -9 -8 -8 -8 -8 -8 -8 -8 -7 -7 -7 -7 -7 -7 -6 -6 -6 -6 -6 -6 -6 -5 -5 -5 -5 -5 -5 -5 -5 -5 -5 -5 -5 -5 -6
-9 -9 -9 -9 -9 -9 -9 -9 -9 -9 -9 -9 -9 -9 -9 -8 -8 -8 -8 -8 -8 -7 -7 -7 -7 -6 -6 -6 -6 -6 -6 -6 -6 -6 -5 -5 -5 -5 -5 -6 -6 -6 -6
-10 -10 -10 -10 -10 -10 -10 -9 -10 -10 -10 -10 -10 -10 -9 -9 -9 -9 -9 -9 -9 -8 -8 -8 -7 -7 -7 -7 -7 -6 -6 -6 -6 -6 -6 -6 -6 -6 -6 -6 -6 -6 -6
-10 -10 -10 -10 -10 -10 -10 -10 -10 -10 -11 -11 -11 -10 -10 -10 -10 -10 -9 -9 -9 -9 -9 -8 -8 -8 -8 -8 -7 -7 -7 -7 -7 -7 -7 -7 -7 -7 -7 -7 -7 -7 -7
-11 -11 -11 -11 -11 -11 -11 -11 -11 -11 -11 -11 -11 -11 -11 -11 -10 -10 -10 -10 -10 -9 -9 -9 -9 -9 -9 -8 -8 -8 -8 -8 -8 -8 -8 -7 -7 -7 -7 -7 -7 -7 -7
-12 -11 -11 -12 -12 -12 -12 -12 -12 -12 -12 -12 -12 -12 -12 -11 -11 -11 -11 -11 -10 -10 -10 -10 -9 -9 -9 -9 -9 -9 -9 -9 -9 -8 -8 -8 -8 -8 -8 -8 -8 -8 -8
-12 -12 -12 -12 -12 -12 -12 -12 -12 -12 -12 -12 -12 -12 -12 -12 -11 -11 -11 -11 -11 -11 -11 -10 -10 -10 -10 -10 -10 -10 -9 -9 -9 -9 -9 -9 -9 -9 -9 -9 -9 -9 -9
-13 -13 -13 -13 -13 -13 -13 -13 -13 -12 -12 -12 -12 -12 -12 -12 -12 -12 -11 -11 -11 -11 -11 -11 -11 -11 -11 -10 -10 -10 -10 -10 -10 -10 -10 -10 -10 -10 -10 -10 -10 -10 -10
-13 -13 -13 -13 -13 -13 -13 -13 -13 -13 -13 -12 -12 -12 -12 -12 -12 -12 -12 -12 -12 -12 -11 -11 -11 -11 -11 -11 -11 -11 -11 -11 -10 -10 -10 -10 -10 -10 -10 -10 -10 -10 -10
-14 -14 -14 -14 -14 -14 -14 -14 -14 -14 -14 -13 -13 -13 -13 -12 -12 -12 -12 -12 -12 -12 -12 -12 -12 -12 -11 -11 -11 -11 -11 -11 -11 -11 -11 -11 -11 -11 -11 -11 -11 -11 -11
-14 -14 -14 -14 -14 -14 -14 -14 -14 -14 -14 -14 -14 -14 -13 -13 -13 -13 -13 -13 -13 -13 -13 -12 -12 -12 -12 -12 -12 -12 -12 -11 -11 -11 -11 -11 -11 -11 -11 -11 -11 -11 -11
-14 -14 -14 -14 -14 -15 -15 -15 -15 -15 -15 -15 -14 -14 -14 -14 -14 -14 -13 -13 -13 -13 -13 -13 -13 -13 -12 -12 -12 -12 -12 -12 -12 -12 -12 -12 -12 -12 -12 -12 -12 -12 -12
-15 -15 -15 -15 -15 -15 -15 -15 -15 -15 -15 -15 -15 -14 -14 -14 -14 -14 -14 -14 -14 -13 -13 -13 -13 -13 -13 -13 -13 -12 -12 -12 -12 -12 -12 -12 -12 -12 -12 -12 -12 -12 -12
-15 -15 -15 -15 -15 -15 -15 -15 -15 -15 -15 -15 -15 -15 -15 -15 -14 -14 -14 -14 -14 -14 -14 -14 -13 -13 -13 -13 -13 -13 -13 -12 -12 -12 -12 -12 -12 -12 -12 -12 -13 -13 -13
-15 -15 -15 -15 -15 -15 -15 -15 -15 -15 -15 -15 -15 -15 -15 -15 -15 -15 -14 -14 -14 -14 -14 -14 -14 -14 -13 -13 -13 -13 -13 -13 -13 -13 -13 -13 -13 -13 -13 -13 -13 -13 -13
-16 -16 -15 -15 -16 -16 -16 -16 -16 -16 -16 -16 -15 -15 -15 -15 -15 -15 -15 -15 -14 -14 -14 -14 -14 -14 -14 -13 -13 -13 -13 -13 -13 -13 -13 -13 -13 -13 -13 -13 -13 -13 -13
-16 -16 -16 -16 -16 -16 -16 -16 -16 -16 -16 -16 -16 -16 -16 -15 -15 -15 -15 -15 -15 -15 -14 -14 -14 -14 -14 -14 -13 -13 -13 -13 -13 -13 -13 -13 -13 -13 -13 -13 -13 -13 -13
Wind_Speed
4 4 3 3 3 3 3 4 4 4 4 4 5 5 5 5 5 5 6 6 7 7 7 7 8 6 5 5 4 4 5 5 7 5 4 4 5 5 7 9 9 9 9
4 4 4 4 4 3 4 5 5 4 4 5 5 5 6 6 6 7 7 7 8 8 8 8 8 7 7 6 5 6 6 5 6 7 5 4 5 6 6 6 7 9 9
4 4 4 4 4 4 5 5 5 5 5 5 5 6 7 7 7 7 8 8 8 9 8 9 9 8 8 7 7 7 6 6 5 6 6 4 4 4 4 5 6 6 9
4 4 4 5 5 5 5 5 5 5 5 5 6 6 7 7 7 8 8 8 8 8 8 8 9 10 10 9 8 8 7 7 6 6 6 5 5 4 4 4 5 4 5
4 4 5 5 5 5 5 5 5 5 6 6 6 6 6 6 7 8 8 8 8 8 8 8 9 11 12 11 9 8 8 7 7 7 6 5 5 4 5 4 6 4 5
4 5 5 5 5 5 5 5 5 5 5 5 6 6 6 6 9 11 9 7 8 8 8 8 9 10 12 15 16 14 12 10 9 8 7 8 7 6 5 5 5 4 5
5 5 5 5 5 6 6 6 6 6 5 6 6 6 7 8 10 11 12 8 7 8 8 7 8 8 10 8 12 14 14 16 15 10 10 10 8 7 7 7 7 6 7
5 5 5 5 6 6 6 6 6 5 5 6 7 7 7 8 11 11 11 8 7 7 8 8 8 8 8 8 8 10 10 11 13 11 11 10 9 9 9 9 8 6 5
5 6 6 6 6 6 6 7 6 6 6 6 6 6 7 8 11 11 10 6 6 8 8 8 9 8 12 13 10 10 10 10 13 16 16 15 15 15 12 6 6 6 6
6 6 6 6 6 7 7 7 6 6 6 6 7 6 7 8 11 11 11 6 7 7 7 7 10 11 12 13 9 9 11 10 8 8 10 11 11 12 14 10 8 8 5
6 6 6 6 6 6 6 5 5 5 5 5 6 7 6 8 10 11 11 6 6 7 6 6 7 11 13 13 11 8 11 9 7 7 7 6 6 7 8 10 9 8 8
5 6 6 6 5 5 5 5 4 4 4 5 5 6 6 7 8 9 11 11 9 7 7 6 7 11 13 13 11 10 12 10 5 6 6 6 6 6 6 7 9 9 9
5 6 5 6 5 5 5 5 4 3 4 4 4 5 5 5 6 10 11 11 11 8 7 10 11 12 12 10 11 11 9 6 5 6 7 7 6 5 5 5 5 6 6
5 6 5 5 5 5 4 4 4 4 4 5 5 5 6 6 5 5 5 7 9 9 7 9 12 13 10 9 8 7 6 6 6 6 6 5 4 4 5 4 5 5 4
5 5 5 5 5 5 5 4 5 5 6 6 5 5 6 6 8 10 8 6 6 7 6 5 4 4 4 4 4 4 5 5 6 5 5 5 5 5 5 4 4 4 5
4 5 4 4 4 4 4 5 7 7 9 10 10 9 8 10 12 12 13 13 11 9 6 4 4 5 5 5 5 5 5 5 5 5 5 5 6 6 5 4 4 5 6
4 5 4 4 4 4 4 4 5 7 8 9 10 10 10 11 12 12 12 10 10 8 5 4 5 5 5 5 5 5 5 5 5 5 6 6 6 6 6 6 6 5 6
5 6 5 4 4 4 4 4 4 5 6 6 8 11 11 11 11 10 10 8 6 5 4 4 5 5 5 5 5 5 5 5 5 5 6 6 6 6 6 6 6 7 7
5 4 4 4 4 4 4 4 4 5 5 6 6 7 10 10 10 10 8 4 4 5 5 4 5 5 5 5 5 5 6 6 5 5 6 6 6 6 7 7 7 9 8
4 7 6 4 4 4 4 4 4 4 5 5 5 6 6 6 5 6 5 4 4 5 5 5 5 5 5 5 5 5 5 5 6 6 6 6 6 6 7 7 7 7 7
4 5 7 5 4 4 4 4 4 4 5 5 5 7 9 5 5 5 5 5 5 5 5 5 5 5 5 5 5 5 6 6 6 6 6 6 6 6 6 6 7 7 6
4 4 4 4 4 4 4 4 4 5 5 6 6 7 10 6 5 5 5 6 5 5 5 5 5 5 5 5 5 5 6 6 6 6 6 6 6 6 6 6 6 6 6
4 4 4 4 4 6 6 5 5 5 5 5 6 5 5 5 5 6 6 6 5 6 6 5 5 5 6 6 6 6 6 7 6 6 6 6 6 6 6 7 7 7 7
4 4 4 4 4 4 5 5 5 5 6 6 5 5 5 5 6 7 6 6 6 6 6 6 6 7 8 8 8 8 8 9 8 8 8 7 7 6 6 7 7 8 8
3 4 4 4 5 5 5 5 5 6 6 6 6 6 6 6 6 6 6 5 6 6 7 7 7 8 9 10 10 10 11 12 11 9 8 7 7 8 8 8 8 7 8
3 4 4 4 4 5 5 6 6 6 6 6 6 6 6 6 6 6 6 5 6 6 7 7 8 9 10 10 11 12 13 13 13 13 9 6 7 7 7 7 8 9 8
Wind_Direction
327 317 317 315 305 295 284 277 267 262 254 250 248 248 249 248 242 239 239 240 234 233 230 224 226 221 223 223 223 222 222 216 239 257 249 246 234 244 257 256 256 259 260
323 318 309 312 314 300 289 284 280 266 258 254 252 252 253 253 248 241 240 239 236 234 232 227 229 226 223 223 223 227 228 223 229 251 257 245 240 236 240 247 253 253 253
321 317 311 308 303 295 288 283 280 273 265 261 254 251 250 249 247 246 243 241 241 237 233 229 227 222 228 227 225 228 230 235 230 240 253 249 249 241 243 255 254 250 252
315 311 304 299 293 289 290 286 280 276 270 262 259 255 253 251 249 247 246 243 245 243 240 236 230 224 226 224 228 227 225 226 229 235 246 249 248 238 230 243 257 246 252
308 306 301 303 302 300 297 293 286 279 277 270 265 265 262 255 249 245 244 243 244 244 243 242 241 237 234 230 231 223 218 223 226 233 243 249 246 235 232 231 247 254 256
303 300 305 309 308 303 297 294 290 283 278 276 267 263 263 265 263 256 253 246 246 244 245 246 247 245 243 243 243 239 229 225 225 229 238 239 240 234 232 234 239 248 259
303 302 305 304 301 298 298 297 291 284 280 275 271 265 264 267 269 264 258 254 249 246 244 246 251 248 246 241 245 246 243 240 235 230 233 237 234 227 223 232 232 239 248
298 299 299 300 297 298 296 292 288 285 280 275 274 268 266 270 272 269 265 258 252 251 246 244 246 247 245 245 244 241 239 239 237 235 235 237 233 223 219 228 233 243 263
294 295 295 295 294 294 292 289 288 286 285 278 276 271 267 273 274 270 266 258 255 256 252 247 245 242 247 249 246 245 244 246 248 243 241 241 241 237 228 222 222 231 254
290 293 292 290 288 286 285 285 285 282 281 282 281 275 269 270 275 271 265 252 254 258 255 252 253 252 252 249 241 240 243 244 240 244 244 245 241 237 233 222 219 225 241
293 295 293 292 289 285 286 286 283 282 285 285 284 283 278 276 278 273 268 253 251 256 256 254 253 259 259 257 253 242 247 248 235 233 239 241 237 231 229 226 221 221 228
298 297 297 297 295 297 290 289 286 281 283 284 283 285 282 281 282 278 275 270 267 256 256 256 255 260 262 262 258 254 257 256 241 233 236 239 237 235 230 226 225 227 231
302 300 299 302 301 299 292 286 288 279 272 278 279 283 288 286 282 284 283 280 278 274 267 265 266 265 264 263 262 261 258 249 237 236 237 236 233 230 226 226 229 231 237
298 299 299 302 302 299 295 288 279 268 267 271 275 280 285 286 284 283 280 282 281 278 276 272 269 267 263 260 258 257 251 244 238 237 237 236 227 223 226 223 229 224 235
296 296 298 297 294 296 294 284 282 268 266 266 264 267 275 277 280 286 286 278 270 266 271 270 264 261 255 251 250 249 245 243 244 236 232 234 234 232 231 221 220 221 230
292 296 296 296 293 292 296 300 294 292 295 290 281 280 280 280 287 290 289 288 287 283 279 268 263 260 257 252 249 249 244 241 238 234 233 232 232 231 231 226 221 222 229
282 288 289 292 295 292 291 294 303 308 306 304 302 295 295 295 292 292 294 293 293 291 275 268 265 261 259 254 250 249 249 246 239 235 235 233 231 230 227 226 226 228 231
289 286 290 287 292 294 291 289 289 296 306 308 308 308 307 306 303 300 300 299 294 291 274 270 269 268 266 260 253 251 250 248 241 236 235 234 227 226 227 225 224 226 230
297 292 290 293 294 295 295 292 290 291 294 300 306 311 315 317 317 316 309 294 287 285 282 276 273 271 268 266 261 253 247 245 241 236 235 233 226 222 228 229 226 230 231
294 298 306 303 300 302 302 299 296 294 296 299 302 305 314 318 315 314 311 299 289 285 282 278 276 274 270 266 265 260 251 245 242 239 236 233 227 223 226 227 226 227 230
294 298 306 307 302 300 299 296 292 290 291 293 293 299 307 306 303 304 305 302 294 286 283 281 278 276 272 267 261 258 256 251 245 240 239 234 227 225 227 226 226 227 230
293 294 297 296 298 299 299 296 294 292 291 291 295 302 308 308 300 296 294 293 290 288 286 280 277 273 269 265 261 257 255 254 250 242 240 236 231 228 227 227 227 226 225
293 296 297 298 297 298 303 303 300 297 294 290 292 294 297 295 293 291 291 291 292 291 291 285 278 277 277 272 266 256 251 251 249 243 241 238 233 229 226 225 224 226 227
288 291 293 294 296 294 297 299 298 298 299 297 294 293 292 292 292 291 290 291 292 291 289 285 282 278 275 273 272 266 261 258 254 248 239 235 233 231 228 228 229 229 229
289 292 294 291 292 294 296 297 298 300 301 300 296 294 295 294 294 293 292 290 289 289 289 287 285 283 279 275 272 268 263 262 260 255 243 235 232 229 228 228 230 231 232
289 291 293 294 294 295 296 296 297 297 297 297 296 293 293 293 293 294 295 292 291 290 290 289 287 286 285 282 277 271 266 264 263 261 247 236 232 231 228 229 229 229 230
Height
1484 1484 1484 1484 1484 1484 1484 1485 1485 1485 1486 1486 1486 1487 1487 1488 1488 1489 1490 1490 1491 1492 1493 1494 1495 1497 1498 1499 1501 1502 1503 1504 1502 1502 1504 1505 1506 1507 1507 1508 1508 1508 1508
1481 1480 1480 1480 1480 1480 1480 1480 1480 1480 1480 1480 1480 1481 1481 1481 1482 1482 1483 1484 1484 1485 1486 1487 1488 1490 1491 1493 1494 1495 1496 1497 1497 1496 1497 1499 1499 1500 1501 1501 1502 1502 1502
1477 1477 1476 1476 1475 1475 1475 1475 1475 1475 1474 1475 1475 1475 1475 1475 1475 1476 1476 1477 1478 1479 1479 1480 1481 1483 1484 1485 1487 1488 1489 1490 1491 1490 1490 1492 1493 1494 1494 1495 1495 1496 1496
1473 1472 1471 1471 1470 1470 1470 1469 1469 1469 1469 1469 1469 1469 1469 1469 1469 1469 1470 1470 1471 1472 1472 1473 1474 1475 1477 1478 1479 1481 1482 1483 1484 1484 1484 1485 1486 1487 1487 1487 1488 1489 1489
1469 1468 1467 1466 1466 1465 1464 1464 1464 1463 1463 1463 1463 1462 1463 1463 1463 1463 1463 1463 1464 1464 1465 1466 1467 1468 1469 1471 1472 1473 1475 1476 1476 1477 1477 1478 1479 1480 1480 1481 1482 1482 1482
1465 1464 1463 1462 1461 1460 1459 1458 1458 1457 1457 1457 1456 1456 1456 1456 1456 1456 1457 1457 1457 1457 1458 1459 1460 1461 1462 1464 1465 1466 1468 1469 1469 1470 1470 1470 1471 1473 1474 1475 1476 1475 1475
1461 1460 1458 1457 1456 1455 1454 1453 1452 1451 1451 1450 1450 1450 1449 1450 1450 1450 1450 1451 1450 1450 1451 1452 1452 1453 1455 1456 1457 1458 1460 1461 1462 1463 1462 1462 1464 1466 1468 1468 1469 1469 1468
1457 1456 1454 1453 1451 1450 1449 1447 1446 1446 1445 1444 1444 1443 1443 1443 1444 1444 1444 1444 1444 1444 1444 1445 1446 1446 1448 1449 1450 1450 1451 1452 1454 1455 1455 1456 1458 1460 1461 1462 1462 1462 1462
1453 1451 1449 1448 1446 1444 1443 1442 1441 1440 1439 1438 1437 1437 1436 1436 1437 1437 1437 1437 1437 1437 1437 1438 1439 1439 1441 1442 1443 1443 1443 1444 1446 1448 1449 1450 1451 1453 1454 1455 1455 1456 1454
1448 1446 1445 1443 1441 1440 1438 1436 1435 1434 1433 1432 1432 1431 1430 1430 1430 1430 1431 1431 1430 1430 1430 1431 1432 1432 1434 1435 1435 1435 1435 1436 1439 1440 1441 1442 1443 1445 1446 1448 1448 1449 1448
1443 1442 1440 1438 1437 1435 1433 1431 1430 1429 1428 1427 1426 1425 1425 1424 1424 1424 1424 1425 1424 1424 1423 1424 1424 1426 1427 1427 1428 1428 1428 1430 1431 1432 1433 1434 1435 1437 1438 1439 1441 1442 1442
1439 1437 1435 1433 1432 1430 1428 1426 1425 1424 1423 1422 1421 1420 1419 1419 1419 1418 1419 1419 1419 1418 1417 1417 1418 1419 1419 1420 1421 1421 1423 1423 1424 1424 1425 1426 1427 1429 1430 1432 1433 1434 1435
1434 1432 1431 1429 1427 1425 1424 1422 1421 1420 1419 1417 1416 1415 1414 1414 1413 1413 1413 1413 1412 1412 1411 1411 1412 1412 1412 1413 1413 1414 1415 1416 1416 1417 1417 1418 1420 1422 1423 1425 1426 1427 1428
1430 1428 1426 1424 1422 1421 1419 1418 1417 1415 1414 1413 1412 1411 1410 1409 1408 1408 1407 1406 1406 1406 1405 1405 1405 1405 1405 1406 1407 1407 1408 1409 1409 1410 1410 1412 1414 1415 1416 1418 1419 1420 1421
1425 1424 1422 1420 1418 1416 1415 1414 1412 1411 1410 1409 1408 1407 1406 1404 1404 1403 1403 1402 1401 1401 1400 1399 1399 1398 1398 1399 1399 1400 1401 1402 1402 1403 1404 1405 1407 1408 1409 1411 1412 1413 1414
1422 1420 1418 1416 1414 1412 1410 1409 1407 1407 1406 1405 1404 1403 1401 1400 1399 1398 1398 1397 1396 1396 1395 1393 1392 1392 1392 1392 1393 1393 1395 1395 1396 1397 1398 1399 1400 1401 1402 1404 1405 1406 1407
1419 1417 1415 1413 1411 1409 1407 1405 1403 1402 1401 1400 1399 1398 1397 1395 1394 1394 1393 1392 1391 1390 1389 1387 1387 1386 1386 1386 1387 1387 1388 1389 1390 1391 1391 1392 1394 1395 1396 1397 1398 1399 1400
1416 1414 1412 1410 1408 1406 1404 1402 1400 1398 1396 1395 1394 1393 1392 1391 1390 1388 1388 1387 1385 1384 1383 1382 1382 1381 1381 1381 1381 1382 1382 1383 1384 1384 1385 1386 1387 1388 1389 1390 1391 1392 1393
1413 1411 1409 1407 1405 1403 1401 1399 1397 1395 1393 1391 1390 1389 1388 1386 1385 1384 1383 1382 1380 1379 1379 1378 1377 1376 1376 1376 1376 1376 1376 1377 1377 1378 1378 1379 1380 1381 1382 1383 1384 1386 1387
1410 1408 1406 1404 1402 1400 1398 1396 1394 1392 1390 1388 1387 1385 1384 1382 1380 1380 1379 1377 1376 1375 1374 1373 1372 1371 1371 1371 1371 1371 1371 1371 1371 1371 1372 1372 1373 1374 1375 1376 1378 1379 1380
1407 1405 1403 1401 1399 1397 1395 1393 1391 1389 1387 1385 1384 1383 1381 1379 1377 1375 1374 1373 1371 1370 1369 1368 1367 1366 1366 1365 1365 1365 1365 1365 1365 1365 1365 1366 1367 1368 1369 1370 1371 1372 1374
1405 1403 1401 1399 1396 1394 1392 1390 1388 1386 1384 1382 1380 1379 1377 1375 1373 1372 1370 1369 1367 1365 1364 1363 1362 1361 1360 1360 1359 1359 1358 1358 1359 1359 1359 1360 1361 1362 1363 1364 1365 1366 1367
1402 1400 1398 1396 1394 1392 1389 1387 1385 1383 1381 1379 1377 1375 1373 1371 1369 1367 1365 1364 1362 1361 1359 1358 1356 1355 1355 1354 1354 1353 1353 1352 1353 1353 1353 1354 1354 1355 1356 1357 1358 1360 1361
1399 1397 1395 1393 1391 1388 1386 1384 1382 1380 1378 1376 1374 1372 1369 1367 1365 1363 1361 1359 1358 1356 1355 1353 1351 1350 1349 1348 1348 1347 1347 1347 1347 1347 1348 1348 1348 1349 1350 1351 1352 1354 1355
1396 1394 1392 1390 1388 1385 1383 1381 1379 1377 1374 1372 1370 1368 1365 1363 1361 1359 1357 1355 1353 1351 1350 1348 1346 1345 1344 1343 1342 1341 1341 1341 1342 1342 1342 1343 1343 1344 1345 1346 1347 1348 1349
1393 1391 1389 1387 1384 1382 1380 1378 1376 1373 1371 1369 1366 1364 1362 1359 1357 1355 1353 1351 1349 1347 1345 1343 1342 1340 1339 1337 1336 1336 1335 1336 1336 1336 1337 1337 1338 1338 1339 1340 1341 1342 1343